Location: Washington
(38.8950°N, 77.0370°W)
Time: 06:59:21
(UTC-04:00)

Amateur Radio Satellites - All Passes

Search period start: 19 April 2015 06:29
Search period end: 20 April 2015 06:29
Location: Washington, 38.8950°N, 77.0370°W

Satellite Date Start Highest point End Downlink Frequencies (MHz)
Time Altitude Azimuth
JUGNU 19 Apr 06:38:38 06:40:11 11° 181° (S) 06:41:44 437.505
CUTE-I 19 Apr 06:41:58 06:46:23 27° 94° (E) 06:50:53 437.470
GONETS M04 19 Apr 06:45:09 06:52:06 26° 277° (W) 06:58:42
JAS-2 19 Apr 06:48:41 06:53:44 22° 299° (WNW) 06:58:10 435.910
Cubesat XI-IV 19 Apr 06:49:06 06:53:48 32° 96° (E) 06:58:32 437.490
STRAND 1 19 Apr 06:50:14 06:55:05 46° 72° (ENE) 06:59:59 437.568
Cosmos 2499 19 Apr 06:53:11 07:01:13 70° 80° (E) 07:08:36 435.465 / 435.565
PRISM 19 Apr 07:00:31 07:04:42 82° 76° (ENE) 07:08:54 437.425
AUBIESAT-1 19 Apr 07:05:49 07:09:49 28° 261° (W) 07:13:54 437.475
DANDE 19 Apr 07:35:11 07:39:56 18° 271° (W) 07:44:46 436.750
AIST 2 19 Apr 07:43:41 07:45:14 11° 320° (NW) 07:46:38 435.215
CUSAT 1 19 Apr 07:46:16 07:49:05 12° 274° (W) 07:51:22 437.405
CUBESAT XI-V 19 Apr 08:08:30 08:11:07 14° 270° (W) 08:13:29 437.345
CUTE-I 19 Apr 08:21:42 08:26:32 36° 291° (WNW) 08:31:19 437.470
SRMSAT 19 Apr 08:22:05 08:23:50 11° 181° (S) 08:25:34 437.500
HO-68 19 Apr 08:26:39 08:30:12 15° 88° (E) 08:34:13 435.675
Cubesat XI-IV 19 Apr 08:29:13 08:33:52 31° 292° (WNW) 08:38:25 437.490
STRAND 1 19 Apr 08:30:51 08:34:35 19° 268° (W) 08:38:09 437.568
Cosmos 2499 19 Apr 08:48:00 08:53:31 20° 279° (W) 08:58:25 435.465 / 435.565
DOVE 4 19 Apr 09:22:42 09:27:09 33° 96° (E) 09:31:51 437.250
BRITE-PL 19 Apr 09:23:05 09:27:57 75° 101° (ESE) 09:33:14 437.365/2234.400
PCSat 19 Apr 09:23:31 09:27:49 25° 108° (ESE) 09:32:15 145.827
CINEMA 3 19 Apr 09:24:57 09:28:10 18° 91° (E) 09:31:37 145.822/145.860
COMPASS 1 19 Apr 09:26:26 09:29:49 23° 94° (E) 09:33:14 437.405
O/OREOS (USA 219) 19 Apr 09:31:55 09:35:59 33° 62° (ENE) 09:40:03 437.305
CANX-2 19 Apr 09:35:46 09:39:58 51° 99° (E) 09:44:08 2200.000
SEEDS 19 Apr 09:39:53 09:43:56 42° 98° (E) 09:47:57 437.485
CUTE 1.7 + AOD 2 19 Apr 09:46:00 09:50:16 61° 100° (E) 09:54:30 437.475
GOMX 1 19 Apr 09:48:09 09:53:07 87° 101° (ESE) 09:58:24 467.674
TIGRISAT 19 Apr 10:01:05 10:04:14 20° 67° (ENE) 10:07:36 435.000
UNISAT 6 19 Apr 10:01:51 10:05:08 21° 68° (ENE) 10:08:36 437.425
ZACube-1 19 Apr 10:10:32 10:13:29 17° 91° (E) 10:16:36 437.345
HO-68 19 Apr 10:11:43 10:18:58 89° 287° (WNW) 10:26:10 435.675
CUBEBUG 2 19 Apr 10:12:43 10:16:48 29° 95° (E) 10:20:58 437.445
AAUSAT CUBESAT 2 19 Apr 10:14:38 10:18:51 76° 101° (ESE) 10:23:01 437.432
POLYITAN 1 19 Apr 10:21:26 10:23:55 16° 67° (ENE) 10:26:36 437.675
Cosmos 2491 19 Apr 10:22:08 10:30:15 40° 73° (ENE) 10:38:29 435.465 / 435.565
Oscar 11 19 Apr 10:26:17 10:30:28 45° 98° (E) 10:34:38 145.826/435.025
DUCHIFAT 1 19 Apr 10:31:06 10:34:02 19° 68° (ENE) 10:37:06 145.980
DELFI C3 19 Apr 10:37:18 10:41:12 44° 99° (E) 10:45:04 145.870
ANTELSAT 19 Apr 10:42:21 10:46:41 57° 74° (ENE) 10:51:11 437.575/2403.000
QB50P1 19 Apr 10:43:10 10:46:40 27° 70° (ENE) 10:50:16 145.935-145.965
DX 1 19 Apr 10:47:48 10:51:23 25° 95° (E) 10:55:01 434.975-435.025
UWE-3 19 Apr 10:53:57 10:58:37 65° 100° (E) 11:03:16 435.000/436.395/437.385
BUGSAT 1 19 Apr 10:58:09 11:01:30 26° 71° (ENE) 11:04:55 437.445
DOVE 4 19 Apr 11:00:37 11:04:49 28° 290° (WNW) 11:09:05 437.250
CINEMA 3 19 Apr 11:00:55 11:05:38 48° 286° (WNW) 11:10:25 145.822/145.860
COMPASS 1 19 Apr 11:01:54 11:05:29 26° 289° (WNW) 11:08:59 437.405
BRITE-PL 19 Apr 11:03:53 11:06:05 13° 294° (WNW) 11:08:04 437.365/2234.400
HUMSAT D 19 Apr 11:03:58 11:07:48 30° 96° (E) 11:11:39 437.325/437.525
PCSat 19 Apr 11:05:54 11:11:01 42° 304° (NW) 11:16:11 145.827
QB50P2 19 Apr 11:05:56 11:10:00 50° 74° (ENE) 11:14:07 145.880/145.840
O/OREOS (USA 219) 19 Apr 11:11:46 11:15:14 21° 258° (WSW) 11:18:33 437.305
CANX-2 19 Apr 11:13:15 11:15:30 14° 294° (WNW) 11:17:34 2200.000
SEEDS 19 Apr 11:16:44 11:19:25 16° 293° (WNW) 11:21:57 437.485
FUNcube-1 19 Apr 11:23:07 11:27:44 78° 282° (WNW) 11:32:19 145.935
CUTE 1.7 + AOD 2 19 Apr 11:24:05 11:25:43 12° 295° (WNW) 11:27:07 437.475
VELOX 1 19 Apr 11:25:53 11:29:47 30° 96° (E) 11:33:42 145.980
YUBILEINY 19 Apr 11:28:45 11:37:00 48° 89° (E) 11:45:21 435.215
POPSAT HIP 1 19 Apr 11:28:56 11:33:08 88° 257° (WSW) 11:37:23 437.405
NANOSAT C BR1 19 Apr 11:29:06 11:33:18 88° 257° (WSW) 11:37:32 145.865
GOMX 1 19 Apr 11:29:16 11:30:44 11° 295° (WNW) 11:31:55 467.674
TIGRISAT 19 Apr 11:36:40 11:40:46 36° 263° (W) 11:44:57 435.000
UNISAT 6 19 Apr 11:37:39 11:41:43 34° 264° (W) 11:45:52 437.425
AISAT 19 Apr 11:40:31 11:44:47 45° 99° (E) 11:49:04 437.250
UKube-1 19 Apr 11:40:40 11:45:01 85° 284° (WNW) 11:49:21 .
ZACube-1 19 Apr 11:45:43 11:50:05 43° 287° (WNW) 11:54:26 437.345
CUBEBUG 2 19 Apr 11:49:22 11:53:25 28° 290° (WNW) 11:57:27 437.445
CUBEBUG 1 19 Apr 11:52:40 11:56:22 28° 96° (E) 12:00:08 437.445
50 SAT 19 Apr 11:54:11 11:58:15 73° 101° (ESE) 12:02:17 437.505
ESTCUBE 1 19 Apr 11:54:23 11:58:26 33° 97° (E) 12:02:31 437.505/2401.250
POLYITAN 1 19 Apr 11:55:34 11:59:33 41° 262° (W) 12:03:33 437.675
HO-68 19 Apr 12:01:23 12:05:51 17° 303° (WNW) 12:09:58 435.675
Oscar 11 19 Apr 12:03:37 12:06:20 16° 293° (WNW) 12:08:50 145.826/435.025
DUCHIFAT 1 19 Apr 12:05:54 12:09:41 32° 263° (W) 12:13:28 145.980
DELFI C3 19 Apr 12:13:49 12:16:00 14° 293° (WNW) 12:18:00 145.870
Cosmos 2491 19 Apr 12:19:01 12:27:12 43° 271° (W) 12:35:14 435.465 / 435.565
QB50P1 19 Apr 12:19:09 12:22:32 23° 266° (W) 12:25:52 145.935-145.965
ANTELSAT 19 Apr 12:22:01 12:23:58 12° 272° (W) 12:25:42 437.575/2403.000
DX 1 19 Apr 12:23:55 12:27:35 27° 291° (WNW) 12:31:13 434.975-435.025
Oscar 19 19 Apr 12:29:25 12:32:09 15° 63° (ENE) 12:35:08 437.125/150
UWE-3 19 Apr 12:32:22 12:34:40 13° 295° (WNW) 12:36:45 435.000/436.395/437.385
BEESAT 2 19 Apr 12:32:32 12:33:14 10° 39° (NE) 12:34:06 435.950
BUGSAT 1 19 Apr 12:33:50 12:37:00 21° 266° (W) 12:40:04 437.445
BEESAT 3 19 Apr 12:39:16 12:41:23 14° 43° (NE) 12:43:37 437.485
HUMSAT D 19 Apr 12:40:00 12:43:25 22° 291° (WNW) 12:46:44 437.325/437.525
QB50P2 19 Apr 12:44:25 12:46:16 12° 270° (W) 12:47:55 145.880/145.840
Cosmos 2504 19 Apr 12:56:21 13:00:22 15° 79° (ENE) 13:05:03 435.465 / 435.565
VELOX 1 19 Apr 13:02:40 13:06:13 23° 291° (WNW) 13:09:41 145.980
AIST 1 19 Apr 13:17:55 13:22:11 84° 266° (W) 13:26:27
AISAT 19 Apr 13:18:14 13:21:04 16° 294° (WNW) 13:23:44 437.250
SO-50 19 Apr 13:19:16 13:23:36 42° 116° (ESE) 13:28:08 436.795
YUBILEINY 19 Apr 13:26:01 13:34:03 36° 289° (WNW) 13:41:58 435.215
CUBEBUG 1 19 Apr 13:29:07 13:32:39 24° 291° (WNW) 13:36:07 437.445
ESTCUBE 1 19 Apr 13:31:41 13:35:09 22° 292° (WNW) 13:38:29 437.505/2401.250
ITUPSAT 1 19 Apr 13:34:22 13:35:40 11° 88° (E) 13:37:18 437.325
TISAT 1 19 Apr 13:37:41 13:41:56 90° 343° (NNW) 13:46:11 437.305
SPROUT 19 Apr 13:40:56 13:45:13 65° 285° (WNW) 13:49:29 437.525
RS-15 19 Apr 13:50:30 13:54:28 13° 99° (E) 13:59:29 29.354- 29.394
ISS 19 Apr 14:00:09 14:02:44 22° 133° (SE) 14:05:22 145.825
Oscar 19 19 Apr 14:05:54 14:11:01 66° 259° (W) 14:16:10 437.125/150
BEESAT 19 Apr 14:07:38 14:11:39 27° 95° (E) 14:15:43 436.000
BEESAT 2 19 Apr 14:07:56 14:12:05 85° 55° (NE) 14:16:09 435.950
SWISSCUBE 19 Apr 14:08:48 14:12:58 30° 96° (E) 14:17:11 437.505
Gurwin Techsat 1B 19 Apr 14:13:18 14:18:08 38° 70° (ENE) 14:23:04 435.225
BEESAT 3 19 Apr 14:15:49 14:19:53 64° 242° (WSW) 14:23:52 437.485
ITAMSAT 1 19 Apr 14:24:47 14:29:51 58° 73° (ENE) 14:34:58 435.822/435.867
AIST 2 19 Apr 14:24:49 14:28:51 41° 53° (NE) 14:32:49 435.215
Cosmos 2504 19 Apr 14:43:48 14:52:35 80° 94° (E) 15:01:30 435.465 / 435.565
SO-50 19 Apr 15:00:31 15:04:21 24° 314° (NW) 15:08:13 436.795
ITUPSAT 1 19 Apr 15:09:24 15:14:09 68° 286° (WNW) 15:18:52 437.325
JAS-2 19 Apr 15:11:58 15:18:19 29° 64° (ENE) 15:24:51 435.910
AO-7 19 Apr 15:31:22 15:39:07 48° 65° (ENE) 15:46:58 29.400- 29.500
STARS 19 Apr 15:32:44 15:36:18 24° 94° (E) 15:39:59 437.465
ISS 19 Apr 15:35:55 15:38:58 36° 328° (NNW) 15:42:03 145.825
HORYU 2 19 Apr 15:36:48 15:41:06 50° 73° (ENE) 15:45:29 437.375
BEESAT 19 Apr 15:45:21 15:49:29 29° 291° (WNW) 15:53:31 436.000
SWISSCUBE 19 Apr 15:46:47 15:50:45 26° 291° (WNW) 15:54:37 437.505
Gurwin Techsat 1B 19 Apr 15:53:52 15:58:15 25° 266° (W) 16:02:32 435.225
RS-15 19 Apr 15:54:22 16:05:08 72° 117° (ESE) 16:16:09 29.354- 29.394
GONETS M04 19 Apr 15:55:54 15:59:07 13° 78° (ENE) 16:03:04
KKS-1 19 Apr 15:56:48 16:01:18 74° 103° (ESE) 16:05:47 437.445
AIST 2 19 Apr 16:04:15 16:07:09 18° 249° (WSW) 16:09:52 435.215
ITAMSAT 1 19 Apr 16:06:39 16:09:50 16° 270° (W) 16:12:46 435.822/435.867
Cosmos 2504 19 Apr 16:40:24 16:47:07 22° 296° (WNW) 16:53:28 435.465 / 435.565
JAS-2 19 Apr 16:55:13 17:02:53 62° 261° (W) 17:10:38 435.910
STARS 19 Apr 17:08:55 17:12:47 29° 290° (WNW) 17:16:34 437.465
MOZHAYETS 4 19 Apr 17:10:06 17:14:03 28° 95° (E) 17:18:02
ISS 19 Apr 17:14:59 17:16:06 11° 347° (NNW) 17:17:11 145.825
HORYU 2 19 Apr 17:15:40 17:18:07 14° 270° (W) 17:20:23 437.375
AO-7 19 Apr 17:24:31 17:32:06 37° 263° (W) 17:39:33 29.400- 29.500
KKS-1 19 Apr 17:36:13 17:37:25 11° 296° (WNW) 17:38:20 437.445
GONETS M04 19 Apr 17:45:58 17:54:40 78° 95° (E) 18:03:30
CUTE-I 19 Apr 18:02:32 18:07:26 40° 70° (ENE) 18:12:24 437.470
RS-15 19 Apr 18:08:43 18:18:34 36° 322° (NW) 18:28:30 29.354- 29.394
Cubesat XI-IV 19 Apr 18:09:49 18:14:54 47° 72° (ENE) 18:20:01 437.490
PCSat 19 Apr 18:12:22 18:16:03 19° 45° (NE) 18:19:52 145.827
CUBESAT XI-V 19 Apr 18:28:16 18:30:39 14° 90° (E) 18:33:14 437.345
PRISM 19 Apr 18:46:24 18:47:53 12° 90° (E) 18:49:35 437.425
MOZHAYETS 4 19 Apr 18:47:21 18:51:13 26° 291° (WNW) 18:54:58
AUBIESAT-1 19 Apr 18:48:36 18:52:13 26° 98° (E) 18:55:39 437.475
HO-68 19 Apr 18:57:19 18:58:58 11° 52° (NE) 19:01:05 435.675
STRAND 1 19 Apr 19:03:08 19:06:17 17° 91° (E) 19:09:39 437.568
DANDE 19 Apr 19:04:19 19:07:07 61° 282° (WNW) 19:10:34 436.750
CUSAT 1 19 Apr 19:09:46 19:12:35 33° 287° (WNW) 19:16:04 437.405
Cosmos 2499 19 Apr 19:26:00 19:34:38 62° 92° (E) 19:43:16 435.465 / 435.565
M-CUBED/EXP-1 PRIME 19 Apr 19:33:54 19:38:22 79° 289° (WNW) 19:42:25 437.505
VERMONT LUNAR 19 Apr 19:43:04 19:46:11 34° 154° (SSE) 19:49:19 437.305
CUTE-I 19 Apr 19:43:20 19:47:40 24° 266° (W) 19:51:54 437.470
GONETS M04 19 Apr 19:46:07 19:52:40 22° 296° (WNW) 19:58:53
Cubesat XI-IV 19 Apr 19:51:18 19:55:17 20° 268° (W) 19:59:08 437.490
PCSat 19 Apr 19:54:40 20:00:04 70° 245° (WSW) 20:05:26 145.827
CUBESAT XI-V 19 Apr 20:03:59 20:08:28 51° 286° (WNW) 20:12:55 437.345
COMPASS 1 19 Apr 20:17:39 20:19:59 15° 67° (ENE) 20:22:31 437.405
PRISM 19 Apr 20:19:44 20:23:43 49° 287° (WNW) 20:27:39 437.425
AUBIESAT-1 19 Apr 20:23:19 20:26:58 26° 297° (WNW) 20:30:20 437.475
CINEMA 3 19 Apr 20:27:27 20:29:05 12° 65° (ENE) 20:30:59 145.822/145.860
CANX-2 19 Apr 20:27:40 20:31:27 31° 71° (ENE) 20:35:18 2200.000
ISS 19 Apr 20:28:15 20:30:58 24° 27° (NNE) 20:33:42 145.825
DOVE 4 19 Apr 20:28:17 20:31:38 24° 69° (ENE) 20:35:09 437.250
RS-15 19 Apr 20:28:51 20:35:44 17° 355° (N) 20:42:41 29.354- 29.394
SEEDS 19 Apr 20:31:07 20:34:37 26° 70° (ENE) 20:38:12 437.485
BRITE-PL 19 Apr 20:33:41 20:37:48 71° 76° (ENE) 20:41:58 437.365/2234.400
CUTE 1.7 + AOD 2 19 Apr 20:37:42 20:41:37 37° 72° (ENE) 20:45:37 437.475
HO-68 19 Apr 20:38:26 20:45:27 61° 70° (ENE) 20:52:33 435.675
STRAND 1 19 Apr 20:40:55 20:45:53 52° 287° (WNW) 20:50:48 437.568
PHONESAT 2.4 19 Apr 20:41:40 20:45:00 36° 154° (SSE) 20:48:20 2401.200-2431.200
GOMX 1 19 Apr 20:55:53 21:00:01 80° 77° (ENE) 21:04:15 467.674
AAUSAT CUBESAT 2 19 Apr 21:04:12 21:08:10 42° 73° (ENE) 21:12:11 437.432
ZACube-1 19 Apr 21:07:13 21:08:35 12° 64° (ENE) 21:10:11 437.345
CUBEBUG 2 19 Apr 21:10:44 21:13:46 20° 68° (ENE) 21:16:59 437.445
Oscar 11 19 Apr 21:20:03 21:23:49 30° 71° (ENE) 21:27:40 145.826/435.025
VERMONT LUNAR 19 Apr 21:20:13 21:23:36 77° 349° (NNW) 21:27:00 437.305
Cosmos 2499 19 Apr 21:20:48 21:28:24 30° 292° (WNW) 21:35:41 435.465 / 435.565
DELFI C3 19 Apr 21:24:09 21:27:24 24° 70° (ENE) 21:30:46 145.870
YUBILEINY 19 Apr 21:41:16 21:47:23 21° 64° (ENE) 21:53:53 435.215
DX 1 19 Apr 21:42:51 21:45:55 20° 68° (ENE) 21:49:07 434.975-435.025
UWE-3 19 Apr 21:50:07 21:54:08 42° 73° (ENE) 21:58:19 435.000/436.395/437.385
COMPASS 1 19 Apr 21:51:18 21:55:21 45° 262° (W) 21:59:27 437.405
SO-50 19 Apr 21:51:52 21:56:15 31° 49° (NE) 22:00:38 436.795
HUMSAT D 19 Apr 21:55:28 21:58:22 19° 68° (ENE) 22:01:24 437.325/437.525
CINEMA 3 19 Apr 22:01:41 22:05:49 57° 260° (W) 22:10:08 145.822/145.860
CANX-2 19 Apr 22:04:11 22:07:27 20° 267° (W) 22:10:38 2200.000
ISS 19 Apr 22:04:22 22:07:27 40° 224° (SW) 22:10:29 145.825
DOVE 4 19 Apr 22:05:56 22:09:24 24° 266° (W) 22:12:51 437.250
SEEDS 19 Apr 22:06:50 22:10:23 25° 266° (W) 22:13:53 437.485
CUTE 1.7 + AOD 2 19 Apr 22:14:46 22:17:43 17° 268° (W) 22:20:33 437.475
FUNcube-1 19 Apr 22:17:36 22:21:49 70° 76° (ENE) 22:26:10 145.935
PHONESAT 2.4 19 Apr 22:19:33 22:23:09 78° 350° (N) 22:26:44 2401.200-2431.200
VELOX 1 19 Apr 22:22:50 22:26:17 24° 69° (ENE) 22:29:52 145.980
HO-68 19 Apr 22:28:01 22:33:42 24° 268° (W) 22:39:10 435.675
UKube-1 19 Apr 22:34:09 22:38:26 69° 75° (ENE) 22:42:45 .
ANTELSAT 19 Apr 22:37:10 22:39:36 14° 89° (E) 22:42:15 437.575/2403.000
AISAT 19 Apr 22:37:22 22:41:21 35° 71° (ENE) 22:45:23 437.250
50 SAT 19 Apr 22:38:39 22:42:13 34° 72° (ENE) 22:45:54 437.505
ZACube-1 19 Apr 22:40:14 22:44:27 62° 260° (W) 22:48:47 437.345
AAUSAT CUBESAT 2 19 Apr 22:41:34 22:44:03 15° 269° (W) 22:46:22 437.432
RS-15 19 Apr 22:44:36 22:53:40 27° 30° (NNE) 23:03:20 29.354- 29.394
CUBEBUG 2 19 Apr 22:46:21 22:50:15 34° 264° (W) 22:54:15 437.445
CUBEBUG 1 19 Apr 22:48:16 22:51:27 21° 68° (ENE) 22:54:44 437.445
ESTCUBE 1 19 Apr 22:53:06 22:56:54 28° 70° (ENE) 23:00:46 437.505/2401.250
Oscar 11 19 Apr 22:56:37 23:00:03 22° 267° (W) 23:03:24 145.826/435.025
VERMONT LUNAR 19 Apr 22:57:54 23:01:17 69° 6° (N) 23:04:39 437.305
DELFI C3 19 Apr 22:59:06 23:02:30 24° 266° (W) 23:05:51 145.870
NANOSAT C BR1 19 Apr 23:16:29 23:19:08 16° 92° (E) 23:21:58 145.865
POPSAT HIP 1 19 Apr 23:16:33 23:19:14 17° 92° (E) 23:22:05 437.405
DX 1 19 Apr 23:18:00 23:21:58 34° 262° (W) 23:25:56 434.975-435.025
Cosmos 2491 19 Apr 23:21:37 23:29:45 48° 90° (E) 23:38:02 435.465 / 435.565
UWE-3 19 Apr 23:28:24 23:30:59 15° 270° (W) 23:33:26 435.000/436.395/437.385
TIGRISAT 19 Apr 23:29:10 23:33:46 50° 99° (E) 23:38:20 435.000
HUMSAT D 19 Apr 23:30:05 23:33:54 34° 263° (W) 23:37:46 437.325/437.525
UNISAT 6 19 Apr 23:30:20 23:34:59 54° 100° (E) 23:39:35 437.425
SO-50 19 Apr 23:32:21 23:36:49 34° 246° (WSW) 23:41:10 436.795
YUBILEINY 19 Apr 23:36:36 23:45:23 78° 265° (W) 23:54:03 435.215
POLYITAN 1 19 Apr 23:42:13 23:46:07 33° 97° (E) 23:50:03 437.675
O/OREOS (USA 219) 19 Apr 23:42:30 23:46:55 49° 107° (ESE) 23:51:22 437.305
DUCHIFAT 1 19 Apr 23:51:30 23:55:32 41° 98° (E) 23:59:35 145.980
PHONESAT 2.4 19 Apr 23:57:59 00:01:34 71° 6° (N) 00:05:08 2401.200-2431.200
VELOX 1 19 Apr 23:58:54 00:02:46 29° 264° (W) 00:06:34 145.980
QB50P1 20 Apr 00:04:28 00:08:42 60° 100° (E) 00:12:56 145.935-145.965
ANTELSAT 20 Apr 00:12:09 00:16:47 54° 286° (WNW) 00:21:21 437.575/2403.000
50 SAT 20 Apr 00:14:40 00:17:14 16° 268° (W) 00:19:41 437.505
AISAT 20 Apr 00:14:51 00:18:05 19° 267° (W) 00:21:11 437.250
BUGSAT 1 20 Apr 00:16:05 00:20:07 55° 100° (E) 00:24:13 437.445
CUBEBUG 1 20 Apr 00:23:43 00:27:39 32° 264° (W) 00:31:32 437.445
QB50P2 20 Apr 00:28:05 00:32:22 70° 285° (WNW) 00:36:38 145.880/145.840
TISAT 1 20 Apr 00:28:36 00:32:41 56° 74° (ENE) 00:36:47 437.305
ESTCUBE 1 20 Apr 00:29:54 00:33:44 26° 265° (W) 00:37:30 437.505/2401.250
SPROUT 20 Apr 00:33:38 00:37:53 81° 76° (ENE) 00:42:11 437.525
VERMONT LUNAR 20 Apr 00:35:32 00:38:47 45° 203° (SSW) 00:41:59 437.305
Cosmos 2504 20 Apr 00:39:46 00:46:17 26° 67° (ENE) 00:52:41 435.465 / 435.565
ITUPSAT 1 20 Apr 00:40:10 00:42:13 13° 64° (ENE) 00:44:31 437.325
NANOSAT C BR1 20 Apr 00:51:12 00:55:12 39° 288° (WNW) 00:59:10 145.865
POPSAT HIP 1 20 Apr 00:51:19 00:55:19 39° 288° (WNW) 00:59:18 437.405
RS-15 20 Apr 00:56:50 01:08:26 77° 57° (ENE) 01:20:34 29.354- 29.394
TIGRISAT 20 Apr 01:07:05 01:10:08 17° 294° (WNW) 01:13:00 435.000
UNISAT 6 20 Apr 01:08:26 01:11:21 16° 294° (WNW) 01:14:05 437.425
BEESAT 20 Apr 01:13:05 01:17:06 28° 69° (ENE) 01:21:13 436.000
SWISSCUBE 20 Apr 01:14:17 01:18:27 31° 70° (ENE) 01:22:43 437.505
POLYITAN 1 20 Apr 01:18:38 01:21:51 20° 292° (WNW) 01:24:57 437.675
Cosmos 2491 20 Apr 01:18:59 01:26:53 36° 289° (WNW) 01:34:40 435.465 / 435.565
O/OREOS (USA 219) 20 Apr 01:23:37 01:26:41 17° 305° (NW) 01:29:36 437.305
DUCHIFAT 1 20 Apr 01:28:18 01:31:04 17° 293° (WNW) 01:33:43 145.980
PHONESAT 2.4 20 Apr 01:36:22 01:39:47 45° 204° (SSW) 01:43:11 2401.200-2431.200
YUBILEINY 20 Apr 01:37:00 01:40:55 13° 282° (WNW) 01:44:09 435.215
QB50P1 20 Apr 01:42:26 01:44:08 12° 295° (WNW) 01:45:36 145.935-145.965
AIST 1 20 Apr 01:45:51 01:50:08 61° 95° (E) 01:54:23
BUGSAT 1 20 Apr 01:53:34 01:55:12 12° 294° (WNW) 01:56:39 437.445
TISAT 1 20 Apr 02:07:40 02:08:54 11° 271° (W) 02:09:53 437.305
ITUPSAT 1 20 Apr 02:14:50 02:19:37 69° 259° (W) 02:24:25 437.325
Oscar 19 20 Apr 02:18:44 02:23:47 49° 99° (E) 02:28:49 437.125/150
STARS 20 Apr 02:29:10 02:32:12 19° 67° (ENE) 02:35:23 437.465
Gurwin Techsat 1B 20 Apr 02:31:46 02:34:57 17° 90° (E) 02:38:23 435.225
Cosmos 2504 20 Apr 02:32:20 02:40:23 59° 268° (W) 02:47:47 435.465 / 435.565
ITAMSAT 1 20 Apr 02:39:36 02:43:34 23° 93° (E) 02:47:39 435.822/435.867
BEESAT 20 Apr 02:50:44 02:54:54 29° 264° (W) 02:59:02 436.000
SWISSCUBE 20 Apr 02:52:20 02:56:21 26° 266° (W) 03:00:17 437.505
KKS-1 20 Apr 02:53:42 02:58:01 56° 74° (ENE) 03:02:22 437.445
RS-15 20 Apr 03:10:31 03:20:04 29° 255° (WSW) 03:29:24 29.354- 29.394
AIST 1 20 Apr 03:27:20 03:28:18 10° 293° (WNW) 03:29:00
HORYU 2 20 Apr 03:32:11 03:32:59 11° 88° (E) 03:34:05 437.375
AO-7 20 Apr 03:36:43 03:40:24 14° 87° (E) 03:44:43 29.400- 29.500
GONETS M04 20 Apr 03:58:11 04:06:07 36° 71° (ENE) 04:14:09
Oscar 19 20 Apr 03:59:00 04:02:49 20° 294° (WNW) 04:06:28 437.125/150
DANDE 20 Apr 04:01:10 04:04:53 15° 66° (ENE) 04:09:26 436.750
BEESAT 2 20 Apr 04:01:35 04:04:40 21° 112° (ESE) 04:07:52 435.950
CUSAT 1 20 Apr 04:03:13 04:08:15 21° 68° (ENE) 04:14:09 437.405
STARS 20 Apr 04:04:22 04:08:26 36° 262° (W) 04:12:30 437.465
BEESAT 3 20 Apr 04:08:00 04:11:33 30° 114° (ESE) 04:15:12 437.485
JAS-2 20 Apr 04:08:52 04:13:36 21° 88° (E) 04:18:09 435.910
Gurwin Techsat 1B 20 Apr 04:10:10 04:15:23 57° 287° (WNW) 04:20:34 435.225
MOZHAYETS 4 20 Apr 04:11:07 04:14:48 24° 69° (ENE) 04:18:35
ITAMSAT 1 20 Apr 04:18:25 04:23:15 40° 289° (WNW) 04:28:02 435.822/435.867
AIST 2 20 Apr 04:24:16 04:25:40 12° 109° (ESE) 04:27:19 435.215
KKS-1 20 Apr 04:33:13 04:35:06 12° 271° (W) 04:36:44 437.445
M-CUBED/EXP-1 PRIME 20 Apr 04:48:21 04:50:32 14° 58° (ENE) 04:52:58 437.505
HORYU 2 20 Apr 05:05:41 05:10:11 66° 285° (WNW) 05:14:38 437.375
Cosmos 2499 20 Apr 05:21:17 05:26:16 18° 62° (ENE) 05:31:25 435.465 / 435.565
AO-7 20 Apr 05:26:14 05:34:36 81° 106° (ESE) 05:42:58 29.400- 29.500
CUBESAT XI-V 20 Apr 05:31:21 05:33:28 13° 65° (ENE) 05:35:48 437.345
AUBIESAT-1 20 Apr 05:34:26 05:38:36 33° 65° (ENE) 05:42:56 437.475
BEESAT 2 20 Apr 05:38:51 05:42:37 33° 308° (NW) 05:46:24 435.950
DANDE 20 Apr 05:41:59 05:48:52 83° 81° (E) 05:57:14 436.750
CUSAT 1 20 Apr 05:44:26 05:51:33 79° 262° (W) 05:59:49 437.405
BEESAT 3 20 Apr 05:46:11 05:49:37 24° 311° (NW) 05:53:00 437.485
MOZHAYETS 4 20 Apr 05:47:44 05:51:54 32° 264° (W) 05:56:03
JAS-2 20 Apr 05:52:46 05:59:19 55° 289° (WNW) 06:05:02 435.910
GONETS M04 20 Apr 05:54:49 06:03:12 48° 271° (W) 06:11:27
AIST 2 20 Apr 05:59:35 06:03:48 62° 303° (WNW) 06:08:04 435.215
STRAND 1 20 Apr 06:17:45 06:21:38 23° 67° (ENE) 06:25:38 437.568
CUTE-I 20 Apr 06:21:52 06:25:09 17° 91° (E) 06:28:40 437.470
JUGNU 20 Apr 06:23:38 06:25:09 11° 182° (S) 06:26:39 437.505
